Weather History for Bentonville, AR

Change the Weather History Date:

Thursday, May 9, 2013

  Actual Average Record
Temperature  
Mean Temperature 66 °F -  
Max Temperature 75 °F 75 °F 87 °F (1962)
Min Temperature 57 °F 50 °F 34 °F (1980)
Cooling Degree Days 1    
Growing Degree Days 16 (Base 50)    
Moisture  
Dew Point 57 °F    
Average Humidity 76    
Maximum Humidity 94    
Minimum Humidity 53    
Precipitation  
Precipitation 3.36 in - - ()
Sea Level Pressure  
Sea Level Pressure 29.94 in    
Wind  
Wind Speed 8 mph (SSW)    
Max Wind Speed 22 mph    
Max Gust Speed 29 mph    
Visibility 9 miles    
Events Thunderstorm    
Averages and records for this station are not official NWS values.
T = Trace of Precipitation, MM = Missing Value Source: NWS Daily Summary

Daily Weather History Graph

Daily Weather History Graph

Search for Another Location

Airport:

Trip Planner

Search our weather history database for the weather conditions in past years. The results will help you decide how hot, cold, wet, or windy it might be!

Date:

Astronomy

May. 09, 2013 Rise Set
Actual Time 6:15 AM CDT 8:11 PM CDT
Civil Twilight 5:47 AM CDT 8:40 PM CDT
Nautical Twilight 5:12 AM CDT 9:14 PM CDT
Astronomical Twilight 4:36 AM CDT 9:51 PM CDT
Moon 5:59 AM CDT (5/9) 8:07 PM CDT (5/9)
Length of Visible Light 14h 53m
Length of Day
13h 56m
Waning Crescent, 0% of the Moon is Illuminated
May 9
Waning Crescent
May 9
New
May 17
First Quarter
May 24
Full
May 31
Last Quarter

Hourly Weather History & Observations

Time (CDT) Temp. Dew Point Humidity Pressure Visibility Wind Dir Wind Speed Gust Speed Precip Events Conditions
12:15 AM 64.4 °F 55.4 °F 73% 29.97 in 10.0 mi South 6.9 mph - N/A   Clear
12:35 AM 64.4 °F 55.4 °F 73% 29.97 in 10.0 mi South 4.6 mph - N/A   Clear
12:55 AM 64.4 °F 55.4 °F 73% 29.96 in 10.0 mi South 4.6 mph - N/A   Clear
1:15 AM 64.4 °F 55.4 °F 73% 29.95 in 10.0 mi South 4.6 mph - N/A   Clear
1:35 AM 64.4 °F 55.4 °F 73% 29.94 in 10.0 mi South 5.8 mph - N/A   Clear
1:55 AM 64.4 °F 55.4 °F 73% 29.94 in 10.0 mi South 6.9 mph - N/A   Scattered Clouds
2:15 AM 66.2 °F 55.4 °F 68% 29.93 in 10.0 mi South 5.8 mph - N/A   Mostly Cloudy
2:35 AM 66.2 °F 55.4 °F 68% 29.94 in 10.0 mi SSW 11.5 mph 20.7 mph N/A   Mostly Cloudy
2:55 AM 66.2 °F 55.4 °F 68% 29.92 in 10.0 mi SW 12.7 mph 20.7 mph N/A   Mostly Cloudy
3:15 AM 62.6 °F 55.4 °F 77% 29.89 in 10.0 mi West 8.1 mph 18.4 mph 0.01 in   Overcast
3:35 AM 62.6 °F 55.4 °F 77% 29.91 in 10.0 mi South 6.9 mph - 0.01 in   Mostly Cloudy
3:55 AM 62.6 °F 55.4 °F 77% 29.93 in 10.0 mi SW 13.8 mph 19.6 mph 0.02 in   Mostly Cloudy
4:15 AM 60.8 °F 55.4 °F 82% 29.90 in 10.0 mi SE 9.2 mph - 0.02 in   Mostly Cloudy
4:35 AM 60.8 °F 55.4 °F 82% 29.92 in 10.0 mi South 9.2 mph - 0.03 in   Mostly Cloudy
4:55 AM 60.8 °F 55.4 °F 82% 29.91 in 10.0 mi SSE 5.8 mph - 0.03 in   Mostly Cloudy
5:15 AM 60.8 °F 55.4 °F 82% 29.90 in 10.0 mi ESE 4.6 mph - N/A   Mostly Cloudy
5:35 AM 60.8 °F 55.4 °F 82% 29.90 in 10.0 mi SE 4.6 mph - N/A   Overcast
5:55 AM 60.8 °F 55.4 °F 82% 29.90 in 10.0 mi Calm Calm - N/A   Overcast
6:15 AM 60.8 °F 55.4 °F 82% 29.91 in 10.0 mi SSE 3.5 mph - N/A Thunderstorm Overcast
6:35 AM 60.8 °F 55.4 °F 82% 29.96 in 5.0 mi West 6.9 mph - 0.29 in Thunderstorm Thunderstorm
6:55 AM 59.0 °F 55.4 °F 88% 30.00 in 10.0 mi WSW 6.9 mph - 0.32 in   Overcast
7:15 AM 59.0 °F 55.4 °F 88% 30.00 in 10.0 mi SW 10.4 mph - 0.05 in   Overcast
7:35 AM 59.0 °F 55.4 °F 88% 29.98 in 10.0 mi SSW 9.2 mph - 0.11 in   Overcast
7:55 AM 59.0 °F 55.4 °F 88% 29.94 in 10.0 mi SSE 12.7 mph - 0.13 in   Mostly Cloudy
8:15 AM 59.0 °F 55.4 °F 88% 29.94 in 10.0 mi South 11.5 mph 19.6 mph 0.01 in   Mostly Cloudy
8:35 AM 57.2 °F 55.4 °F 94% 29.90 in 10.0 mi SE 21.9 mph 28.8 mph 0.02 in   Overcast
8:55 AM 59.0 °F 55.4 °F 88% 29.94 in 10.0 mi SW 9.2 mph - 0.02 in   Partly Cloudy
9:15 AM 60.8 °F 53.6 °F 77% 29.94 in 10.0 mi South 10.4 mph - N/A   Clear
9:35 AM 60.8 °F 53.6 °F 77% 29.94 in 10.0 mi South 8.1 mph - N/A   Clear
9:55 AM 60.8 °F 53.6 °F 77% 29.93 in 10.0 mi WSW 4.6 mph - N/A   Clear
10:35 AM 64.4 °F 55.4 °F 73% 29.95 in 10.0 mi WSW 9.2 mph - N/A   Scattered Clouds
10:55 AM 64.4 °F 55.4 °F 73% 29.96 in 10.0 mi WSW 11.5 mph - N/A   Overcast
11:15 AM 66.2 °F 55.4 °F 68% 29.96 in 10.0 mi WSW 9.2 mph - N/A   Overcast
11:35 AM 68.0 °F 57.2 °F 68% 29.96 in 10.0 mi SW 13.8 mph - N/A   Mostly Cloudy
12:15 PM 69.8 °F 57.2 °F 64% 29.96 in 10.0 mi West 9.2 mph - N/A   Overcast
12:35 PM 69.8 °F 57.2 °F 64% 29.96 in 10.0 mi West 10.4 mph - N/A   Mostly Cloudy
12:55 PM 71.6 °F 59.0 °F 64% 29.94 in 10.0 mi West 6.9 mph - N/A   Partly Cloudy
1:15 PM 73.4 °F 57.2 °F 57% 29.94 in 10.0 mi West 5.8 mph - N/A   Partly Cloudy
1:35 PM 73.4 °F 57.2 °F 57% 29.94 in 10.0 mi SW 8.1 mph - N/A   Mostly Cloudy
1:55 PM 75.2 °F 57.2 °F 53% 29.95 in 10.0 mi SSW 16.1 mph 21.9 mph N/A   Overcast
2:15 PM 75.2 °F 57.2 °F 53% 29.95 in 10.0 mi SW 12.7 mph - N/A   Mostly Cloudy
2:35 PM 75.2 °F 59.0 °F 57% 29.94 in 10.0 mi WSW 13.8 mph - N/A   Scattered Clouds
2:55 PM 75.2 °F 57.2 °F 53% 29.95 in 10.0 mi SW 11.5 mph - N/A   Mostly Cloudy
3:15 PM 75.2 °F 59.0 °F 57% 29.95 in 10.0 mi SSW 10.4 mph 16.1 mph N/A   Mostly Cloudy
3:35 PM 75.2 °F 57.2 °F 53% 29.94 in 10.0 mi SSW 11.5 mph 17.3 mph N/A   Scattered Clouds
3:55 PM 75.2 °F 57.2 °F 53% 29.94 in 10.0 mi SW 11.5 mph - N/A   Scattered Clouds
4:15 PM 73.4 °F 57.2 °F 57% 29.94 in 10.0 mi SW 9.2 mph - N/A   Overcast
4:35 PM 71.6 °F 57.2 °F 60% 29.93 in 10.0 mi SW 6.9 mph - N/A   Overcast
4:55 PM 71.6 °F 57.2 °F 60% 29.92 in 10.0 mi SW 5.8 mph - N/A Thunderstorm Overcast
5:15 PM 69.8 °F 59.0 °F 68% 29.92 in 10.0 mi SSW 6.9 mph - 0.01 in Thunderstorm Overcast
5:35 PM 66.2 °F 60.8 °F 83% 29.94 in 5.0 mi SSW 12.7 mph 19.6 mph 0.21 in Thunderstorm Overcast
5:55 PM 64.4 °F 60.8 °F 88% 29.94 in 8.0 mi SW 4.6 mph - 0.37 in Thunderstorm Thunderstorm
6:15 PM 64.4 °F 60.8 °F 88% 29.93 in 7.0 mi Calm Calm - N/A Thunderstorm Thunderstorm
6:35 PM 64.4 °F 60.8 °F 88% 29.93 in 9.0 mi ESE 3.5 mph - N/A Thunderstorm Overcast
6:55 PM 64.4 °F 60.8 °F 88% 29.92 in 3.0 mi SE 5.8 mph - 0.14 in Thunderstorm Mostly Cloudy
7:15 PM 64.4 °F 60.8 °F 88% 29.95 in 7.0 mi NW 5.8 mph - 0.06 in   Overcast
7:35 PM 62.6 °F 60.8 °F 94% 29.94 in 2.5 mi SSE 15.0 mph - 0.30 in Thunderstorm Overcast
7:55 PM 62.6 °F 57.2 °F 82% 29.94 in 3.0 mi SSE 11.5 mph - 0.74 in Thunderstorm Thunderstorm
8:15 PM 60.8 °F 55.4 °F 82% 29.94 in 3.0 mi SE 4.6 mph - 0.38 in Thunderstorm Thunderstorm
8:35 PM 60.8 °F 57.2 °F 88% 29.94 in 7.0 mi South 5.8 mph - 0.72 in Thunderstorm Thunderstorm
8:55 PM 60.8 °F 57.2 °F 88% 29.95 in 9.0 mi ENE 4.6 mph - 0.86 in Thunderstorm Thunderstorm
9:15 PM 60.8 °F 57.2 °F 88% 29.95 in 3.0 mi South 5.8 mph - 0.31 in Thunderstorm Thunderstorm
9:35 PM 60.8 °F 59.0 °F 94% 29.94 in 5.0 mi Calm Calm - 0.50 in Thunderstorm Thunderstorm
9:55 PM 60.8 °F 57.2 °F 88% 29.95 in 10.0 mi Calm Calm - 0.50 in   Overcast
10:15 PM 62.6 °F 59.0 °F 88% 29.95 in 10.0 mi Calm Calm - N/A   Overcast
10:35 PM 62.6 °F 59.0 °F 88% 29.95 in 10.0 mi Calm Calm - N/A Thunderstorm Overcast
10:55 PM 62.6 °F 59.0 °F 88% 29.95 in 10.0 mi Calm Calm - N/A   Overcast
11:15 PM 60.8 °F 57.2 °F 88% 29.94 in 10.0 mi SSE 5.8 mph - 0.02 in Thunderstorm Thunderstorm
11:35 PM 62.6 °F 59.0 °F 88% 29.94 in 3.0 mi NNE 10.4 mph - 0.23 in Thunderstorm Thunderstorm